Weather History for Alamosa, CO

Change the Weather History Date:

Sunday, September 2, 2012

  Actual Average Record
Temperature  
Mean Temperature 67 °F 60 °F  
Max Temperature 84 °F 77 °F 85 °F (1958)
Min Temperature 49 °F 42 °F 30 °F (1959)
Degree Days  
Heating Degree Days 0 5  
Month to date heating degree days 0 10  
Since 1 July heating degree days 68 139  
Cooling Degree Days 2 0  
Month to date cooling degree days 2 0  
Year to date cooling degree days 115 51  
Growing Degree Days 16 (Base 50)    
Moisture  
Dew Point 43 °F    
Average Humidity 47    
Maximum Humidity 71    
Minimum Humidity 23    
Precipitation  
Precipitation T in 0.04 in 0.48 in (1965)
Month to date precipitation T 0.08  
Year to date precipitation 3.22 5.03  
Snow  
Snow 0.00 in 0.00 in 0.00 in (2002)
Month to date snowfall 0.0 0.0  
Since 1 July snowfall 0.0 0.0  
Since 1 September snowfall 0.0 0.0  
Snow Depth 0.00 in    
Sea Level Pressure  
Sea Level Pressure 30.06 in    
Wind  
Wind Speed 7 mph (NNE)    
Max Wind Speed 28 mph    
Max Gust Speed 36 mph    
Visibility 10 miles    
Events Rain    
T = Trace of Precipitation, MM = Missing Value Source: NWS Daily Summary

Daily Weather History Graph

Daily Weather History Graph

Search for Another Location

Airport:

Trip Planner

Search our weather history database for the weather conditions in past years. The results will help you decide how hot, cold, wet, or windy it might be!

Date:

Astronomy

Sep. 02, 2012 Rise Set
Actual Time 6:35 AM MDT 7:30 PM MDT
Civil Twilight 6:08 AM MDT 7:56 PM MDT
Nautical Twilight 5:36 AM MDT 8:28 PM MDT
Astronomical Twilight 5:04 AM MDT 9:00 PM MDT
Moon 8:23 PM MDT (9/2) 8:42 AM MDT (9/2)
Length of Visible Light 13h 48m
Length of Day
12h 54m
Waning Gibbous, 95% of the Moon is Illuminated
Sep 2
Waning Gibbous
Sep 8
Last Quarter
Sep 15
New
Sep 22
First Quarter
Sep 29
Full

Hourly Weather History & Observations

Time (MDT) Temp. Dew Point Humidity Pressure Visibility Wind Dir Wind Speed Gust Speed Precip Events Conditions
12:52 AM 59.0 °F 41.0 °F 51% 30.00 in 10.0 mi ENE 4.6 mph - N/A   Mostly Cloudy
1:52 AM 63.0 °F 43.0 °F 48% 29.98 in 10.0 mi North 8.1 mph - N/A   Overcast
2:52 AM 57.9 °F 43.0 °F 58% 30.00 in 10.0 mi SE 5.8 mph - N/A   Mostly Cloudy
3:52 AM 53.6 °F 42.8 °F 67% 30.31 in 10.0 mi South 6.9 mph - N/A   Scattered Clouds
4:52 AM 51.1 °F 41.0 °F 68% 30.01 in 10.0 mi South 6.9 mph - N/A   Clear
5:52 AM 52.0 °F 39.9 °F 63% 30.02 in 10.0 mi West 4.6 mph - N/A   Clear
6:52 AM 51.8 °F 42.8 °F 71% 30.35 in 10.0 mi ENE 6.9 mph - N/A   Clear
7:52 AM 59.0 °F 44.1 °F 58% 30.08 in 10.0 mi NNE 4.6 mph - N/A   Clear
8:52 AM 64.9 °F 43.0 °F 45% 30.08 in 10.0 mi Variable 3.5 mph - N/A   Clear
9:52 AM 68.0 °F 41.0 °F 37% 30.11 in 10.0 mi Variable 3.5 mph - N/A   Clear
10:52 AM 73.9 °F 41.0 °F 30% 30.08 in 10.0 mi NE 9.2 mph - N/A   Clear
11:52 AM 78.1 °F 41.0 °F 27% 30.05 in 10.0 mi Variable 3.5 mph - N/A   Clear
12:52 PM 79.0 °F 39.0 °F 24% 30.01 in 10.0 mi SSE 4.6 mph - N/A   Clear
1:52 PM 80.1 °F 39.9 °F 24% 29.97 in 10.0 mi Variable 5.8 mph - N/A   Clear
2:52 PM 80.1 °F 39.0 °F 23% 29.97 in 10.0 mi SW 6.9 mph - N/A   Clear
3:52 PM 81.0 °F 39.0 °F 22% 29.97 in 10.0 mi Variable 3.5 mph - N/A   Scattered Clouds
4:52 PM 79.0 °F 39.9 °F 25% 29.97 in 10.0 mi SE 9.2 mph - N/A   Scattered Clouds
5:36 PM 69.8 °F 48.2 °F 46% 30.29 in 9.0 mi North 24.2 mph 35.7 mph 0.00 in Rain Light Rain
5:52 PM 69.1 °F 48.0 °F 47% 30.04 in 10.0 mi North 15.0 mph 24.2 mph 0.00 in Rain Light Rain
6:52 PM 68.0 °F 46.0 °F 45% 30.05 in 10.0 mi North 13.8 mph - 0.00 in   Mostly Cloudy
7:52 PM 66.0 °F 46.0 °F 48% 30.04 in 10.0 mi NNE 11.5 mph - N/A   Mostly Cloudy
8:52 PM 64.0 °F 46.0 °F 52% 30.04 in 10.0 mi North 12.7 mph - N/A   Partly Cloudy
9:52 PM 61.0 °F 46.9 °F 60% 30.05 in 10.0 mi NNE 4.6 mph - N/A   Clear
10:52 PM 59.0 °F 46.9 °F 64% 30.04 in 10.0 mi West 5.8 mph - N/A   Partly Cloudy
11:52 PM 59.0 °F 46.9 °F 64% 30.02 in 10.0 mi WNW 6.9 mph - N/A   Scattered Clouds